KC9VAF Weather Reports


Display with metric or nautical units.
time (UTC)temp
F
wind
direction
speed
MPH
gust
MPH
rain 1hr
in
rain 24hr
in
rain mn
in
humidity
%
barometer
mb
20260903202102 79 77 1.0 1.0 0.00 0.27 0.27 89 1014.9
20260903201551 79 92 0.0 0.0 0.00 0.27 0.27 90 1014.8
20260903201050 79 71 0.0 1.0 0.00 0.27 0.27 90 1014.6
20260903200546 78 85 0.0 1.0 0.00 0.27 0.27 90 1014.4
20260903200041 78 90 0.0 1.0 0.00 0.27 0.27 90 1014.4
20260903195537 78 134 0.0 1.0 0.00 0.27 0.27 90 1014.7
20260903195032 78 75 0.0 0.0 0.00 0.27 0.27 91 1014.4
20260903194528 78 90 1.0 1.0 0.00 0.27 0.27 91 1014.4
20260903194022 78 78 0.0 0.0 0.00 0.27 0.27 91 1014.8
20260903193519 78 78 0.0 0.0 0.00 0.27 0.27 90 1014.7
20260903193014 78 80 0.0 0.0 0.00 0.27 0.27 89 1014.8
20260903192510 79 79 0.0 0.0 0.00 0.27 0.27 90 1014.7
20260903192005 79 96 0.0 1.0 0.00 0.27 0.27 89 1014.9
20260903191501 79 90 0.0 1.0 0.00 0.27 0.27 88 1014.7
20260903191000 79 60 0.0 1.0 0.00 0.27 0.27 89 1015.0
20260903190455 78 75 0.0 0.0 0.00 0.27 0.27 90 1015.0
20260903185949 78 75 0.0 0.0 0.00 0.27 0.27 90 1014.9
20260903185445 77 79 1.0 1.0 0.00 0.27 0.27 91 1015.1
20260903184944 76 56 1.0 1.0 0.00 0.27 0.27 92 1014.7
20260903184442 76 127 0.0 0.0 0.00 0.27 0.27 94 1014.7
20260903183936 75 82 1.0 2.0 0.00 0.27 0.27 96 1014.6
20260903183431 74 90 0.0 0.0 0.00 0.27 0.27 97 1014.9
20260903182930 74 77 0.0 0.0 0.00 0.27 0.27 97 1014.8
20260903182429 74 19 2.0 2.0 0.00 0.27 0.27 97 1015.2
20260903181925 74 68 1.0 1.0 0.00 0.27 0.27 97 1015.6
20260903181419 73 82 0.0 0.0 0.00 0.27 0.27 97 1015.1
20260903180918 73 73 0.0 0.0 0.00 0.27 0.27 97 1015.1
20260903180413 73 70 0.0 0.0 0.00 0.27 0.27 97 1014.9
20260903175912 73 81 0.0 0.0 0.00 0.27 0.27 97 1015.1
20260903175407 73 99 1.0 1.0 0.00 0.27 0.27 97 1015.2
20260903174901 72 79 0.0 0.0 0.07 0.27 0.27 97 1014.9
20260903174357 72 78 1.0 1.0 0.47 0.27 0.27 97 1015.2
20260903173856 73 64 1.0 1.0 0.47 0.27 0.27 97 1015.8
20260903173352 72 315 2.0 2.0 0.00 0.19 0.19 97 1014.6
20260903172848 72 78 1.0 1.0 0.00 0.19 0.19 97 1014.1
20260903172342 71 78 2.0 2.0 0.00 0.19 0.19 97 1014.5
20260903171838 71 126 2.0 2.0 0.07 0.19 0.19 97 1014.9
20260903171333 71 79 1.0 1.0 0.19 0.19 0.19 97 1016.2
20260903170832 71 97 0.0 0.0 0.19 0.18 0.18 97 1016.5
20260903170328 71 82 0.0 0.0 0.07 0.16 0.16 97 1016.7
20260903165826 70 88 0.0 0.0 0.05 0.15 0.15 97 1016.9
20260903165325 70 135 0.0 0.0 0.05 0.15 0.15 97 1017.0
20260903164820 70 145 0.0 0.0 0.00 0.14 0.14 96 1017.3
20260903164316 70 76 0.0 0.0 0.00 0.14 0.14 96 1017.8
20260903163815 70 117 1.0 2.0 0.07 0.14 0.14 96 1018.0
20260903163312 70 92 0.0 1.0 0.19 0.14 0.14 96 1018.2
20260903162807 70 183 3.0 5.0 0.17 0.13 0.13 95 1018.2
20260903162306 70 171 1.0 1.0 0.17 0.11 0.11 95 1018.3
20260903161759 70 99 1.0 2.0 0.24 0.10 0.10 94 1017.9
20260903161254 71 84 2.0 2.0 0.31 0.08 0.08 94 1017.9
20260903160750 71 303 4.0 5.0 0.35 0.07 0.07 93 1017.6
20260903160249 71 19 1.0 1.0 0.19 0.03 0.03 92 1017.2
20260903155747 71 189 3.0 5.0 0.07 0.01 0.01 91 1017.7
20260903155243 71 271 4.0 7.0 0.00 0.00 0.00 90 1017.4
20260903154738 72 309 4.0 7.0 0.00 0.00 0.00 89 1017.0
20260903154234 72 263 3.0 5.0 0.00 0.00 0.00 88 1016.8
20260903153729 73 112 2.0 3.0 0.00 0.00 0.00 86 1016.3
20260903153225 75 297 8.0 10.0 0.00 0.00 0.00 84 1016.1
20260903152721 76 332 4.0 6.0 0.00 0.00 0.00 81 1016.4
20260903152217 76 314 3.0 5.0 0.00 0.00 0.00 78 1016.4
20260903151717 75 41 4.0 7.0 0.00 0.00 0.00 76 1016.7
20260903151212 75 31 3.0 5.0 0.00 0.00 0.00 75 1016.2
20260903150707 75 47 3.0 3.0 0.00 0.00 0.00 74 1016.1
20260903150202 75 55 1.0 2.0 0.00 0.00 0.00 73 1016.2
20260903145702 76 69 3.0 5.0 0.00 0.00 0.00 71 1015.9
20260903145157 76 327 2.0 3.0 0.00 0.00 0.00 71 1015.7
20260903144656 75 73 1.0 1.0 0.00 0.00 0.00 73 1015.7
20260903144152 76 0 5.0 8.0 0.00 0.00 0.00 71 1016.0
20260903143648 76 323 5.0 6.0 0.00 0.00 0.00 69 1015.7
20260903143143 74 9 6.0 8.0 0.00 0.00 0.00 69 1015.6
20260903142639 74 40 1.0 2.0 0.00 0.00 0.00 75 1016.0
20260903142136 74 336 3.0 5.0 0.00 0.00 0.00 73 1016.0
20260903141631 74 346 6.0 14.0 0.00 0.00 0.00 73 1016.0
20260903141125 75 33 4.0 6.0 0.00 0.00 0.00 74 1016.3
20260903140622 76 345 6.0 9.0 0.00 0.00 0.00 73 1016.1
20260903140117 74 52 3.0 3.0 0.00 0.00 0.00 78 1015.8
20260903135613 75 33 7.0 13.0 0.00 0.00 0.00 79 1015.9
20260903135112 74 17 4.0 6.0 0.00 0.00 0.00 83 1016.0
20260903134611 75 3 7.0 10.0 0.00 0.00 0.00 83 1016.0
20260903134107 75 76 5.0 8.0 0.00 0.00 0.00 83 1016.3
20260903133605 76 50 3.0 6.0 0.00 0.00 0.00 83 1016.3
20260903133101 76 15 3.0 3.0 0.00 0.00 0.00 84 1016.0
20260903132556 76 40 4.0 7.0 0.00 0.00 0.00 88 1016.0
20260903132050 77 287 4.0 6.0 0.00 0.00 0.00 91 1015.7
20260903131550 77 26 1.0 1.0 0.00 0.00 0.00 91 1014.7
20260903131044 77 77 0.0 0.0 0.00 0.00 0.00 91 1014.2
20260903130544 77 135 0.0 0.0 0.00 0.00 0.00 91 1014.3
20260903130039 77 80 0.0 0.0 0.00 0.00 0.00 91 1014.3
20260903125537 76 143 1.0 1.0 0.00 0.00 0.00 92 1014.2
20260903125033 76 91 0.0 1.0 0.00 0.00 0.00 94 1014.1
20260903124532 75 73 0.0 0.0 0.00 0.00 0.00 95 1014.1
20260903124027 75 83 0.0 0.0 0.00 0.00 0.00 96 1014.0
20260903123521 74 78 0.0 0.0 0.00 0.00 0.00 97 1013.9
20260903123020 74 91 0.0 1.0 0.00 0.00 0.00 97 1014.0
20260903122520 74 102 0.0 0.0 0.00 0.00 0.00 98 1014.1
20260903122019 74 92 0.0 0.0 0.00 0.00 0.00 98 1014.1
20260903121514 73 88 0.0 0.0 0.00 0.00 0.00 98 1014.2
20260903121010 73 90 0.0 0.0 0.00 0.00 0.00 98 1014.2
20260903120508 73 85 0.0 0.0 0.00 0.00 0.00 98 1014.2
20260903120003 73 102 0.0 0.0 0.00 0.00 0.00 98 1014.4
20260903115501 72 92 0.0 0.0 0.00 0.00 0.00 98 1014.3
20260903114956 72 91 0.0 0.0 0.00 0.00 0.00 98 1014.2
20260903114452 72 86 0.0 0.0 0.00 0.00 0.00 98 1014.2
20260903113947 72 85 0.0 0.0 0.00 0.00 0.00 98 1014.3
20260903113442 72 81 0.0 0.0 0.00 0.00 0.00 98 1014.4
20260903112938 72 81 0.0 0.0 0.00 0.00 0.00 98 1014.4
20260903112434 71 81 0.0 0.0 0.00 0.00 0.00 98 1014.4
20260903111933 72 82 0.0 0.0 0.00 0.00 0.00 98 1014.3
20260903111427 71 83 0.0 0.0 0.00 0.00 0.00 98 1014.4
20260903110924 71 83 0.0 0.0 0.00 0.00 0.00 98 1014.3
20260903110419 71 80 0.0 0.0 0.00 0.00 0.00 98 1014.6
20260903105914 71 77 0.0 0.0 0.00 0.00 0.00 98 1014.1
20260903105409 71 82 0.0 0.0 0.00 0.00 0.00 98 1014.4
20260903104909 71 81 0.0 0.0 0.00 0.00 0.00 98 1014.2
20260903104403 71 79 0.0 0.0 0.00 0.00 0.00 98 1014.2
20260903103900 71 82 0.0 0.0 0.00 0.00 0.00 98 1014.1
20260903103356 72 82 0.0 0.0 0.00 0.00 0.00 98 1014.1
20260903102850 72 82 0.0 0.0 0.00 0.00 0.00 98 1014.4
20260903102344 72 82 0.0 0.0 0.00 0.00 0.00 97 1014.3
20260903101839 72 87 0.0 0.0 0.00 0.00 0.00 97 1014.4
20260903101334 72 77 0.0 0.0 0.00 0.00 0.00 97 1014.3
20260903100830 72 78 0.0 0.0 0.00 0.00 0.00 97 1014.1
20260903100330 72 76 0.0 0.0 0.00 0.00 0.00 97 1014.1
20260903095826 72 80 0.0 0.0 0.00 0.00 0.00 97 1014.4
20260903095321 72 82 0.0 0.0 0.00 0.00 0.00 97 1014.3
20260903094816 72 81 0.0 0.0 0.00 0.00 0.00 97 1014.3
20260903094311 72 77 0.0 0.0 0.00 0.00 0.00 97 1014.6
20260903093807 73 79 0.0 0.0 0.00 0.00 0.00 97 1014.7
20260903093302 73 77 0.0 0.0 0.00 0.00 0.00 97 1014.2
20260903092802 73 76 0.0 0.0 0.00 0.00 0.00 97 1014.3
20260903092257 73 75 0.0 0.0 0.00 0.00 0.00 97 1014.3
20260903091755 73 80 0.0 0.0 0.00 0.00 0.00 97 1014.4
20260903091244 73 81 0.0 0.0 0.00 0.00 0.00 97 1014.6
20260903090740 73 81 0.0 0.0 0.00 0.00 0.00 97 1014.4
20260903090239 73 76 0.0 0.0 0.00 0.00 0.00 97 1014.4
20260903085738 73 75 0.0 0.0 0.00 0.00 0.00 97 1014.2
20260903085233 73 77 0.0 0.0 0.00 0.00 0.00 97 1014.3
20260903084730 73 75 0.0 0.0 0.00 0.00 0.00 96 1014.6
20260903084226 73 80 0.0 0.0 0.00 0.00 0.00 96 1014.3
20260903083721 73 81 0.0 0.0 0.00 0.00 0.00 96 1014.4
20260903083221 73 70 0.0 0.0 0.00 0.00 0.00 96 1014.5
20260903082715 73 76 0.0 0.0 0.00 0.00 0.00 96 1014.4
20260903082211 73 74 0.0 0.0 0.00 0.00 0.00 96 1014.3
20260903081710 73 83 0.0 0.0 0.00 0.00 0.00 96 1014.2
20260903081207 73 75 0.0 0.0 0.00 0.00 0.00 96 1014.4
20260903080703 73 75 0.0 0.0 0.00 0.00 0.00 96 1014.3
20260903080200 73 78 0.0 0.0 0.00 0.00 0.00 96 1014.0
20260903075659 73 78 0.0 0.0 0.00 0.00 0.00 96 1014.1
20260903075154 73 80 0.0 0.0 0.00 0.00 0.00 96 1014.2
20260903074653 74 82 0.0 0.0 0.00 0.00 0.00 96 1014.3
20260903074149 74 82 0.0 0.0 0.00 0.00 0.00 95 1014.3
20260903073644 74 85 0.0 0.0 0.00 0.00 0.00 95 1014.4
20260903073139 74 84 0.0 0.0 0.00 0.00 0.00 95 1014.2
20260903072635 74 86 1.0 1.0 0.00 0.00 0.00 96 1014.3
20260903072131 74 73 1.0 1.0 0.00 0.00 0.00 96 1014.7
20260903071628 75 62 2.0 2.0 0.00 0.00 0.00 96 1014.5
20260903071123 75 70 1.0 2.0 0.00 0.00 0.00 97 1014.6
20260903070623 75 68 0.0 0.0 0.00 0.00 0.00 97 1014.3
20260903070119 75 100 0.0 0.0 0.00 0.00 0.00 97 1014.3
20260903065618 75 76 0.0 0.0 0.00 0.00 0.00 97 1014.0
20260903065118 75 75 0.0 0.0 0.00 0.00 0.00 97 1014.2
20260903064612 75 74 0.0 0.0 0.00 0.00 0.00 97 1014.3
20260903064108 75 72 0.0 0.0 0.00 0.00 0.00 97 1014.4
20260903063603 75 68 0.0 0.0 0.00 0.00 0.00 97 1014.4
20260903063058 75 76 0.0 0.0 0.00 0.00 0.00 97 1014.4
20260903062553 75 76 0.0 0.0 0.00 0.00 0.00 97 1014.5
20260903062049 75 74 0.0 0.0 0.00 0.00 0.00 97 1014.5
20260903061544 75 74 0.0 0.0 0.00 0.00 0.00 97 1014.4
20260903061038 75 76 0.0 0.0 0.00 0.00 0.00 97 1014.6
20260903060538 75 76 0.0 0.0 0.00 0.00 0.00 97 1014.5
20260903060033 75 76 0.0 0.0 0.00 0.00 0.00 97 1014.6
20260903055530 75 76 0.0 0.0 0.00 0.00 0.00 97 1014.8
20260903055029 75 76 0.0 0.0 0.00 0.00 0.00 97 1014.7
20260903054524 75 76 0.0 0.0 0.00 0.00 0.00 97 1014.4
20260903054021 76 76 0.0 0.0 0.00 0.00 0.00 97 1014.5
20260903053520 75 76 0.0 0.0 0.00 0.00 0.00 97 1014.8
20260903053017 76 76 0.0 0.0 0.00 0.00 0.00 96 1014.6
20260903052512 76 76 0.0 0.0 0.00 0.00 0.00 96 1014.6
20260903052008 76 77 0.0 0.0 0.00 0.00 0.00 96 1014.7
20260903051502 76 77 0.0 0.0 0.00 0.00 0.00 96 1014.7
20260903050958 76 77 0.0 0.0 0.00 0.00 0.00 96 1014.7
20260903050456 76 78 0.0 0.0 0.00 0.00 0.00 96 1014.6
20260903045951 76 76 0.0 0.0 0.00 0.00 0.00 96 1014.4
20260903045447 76 75 0.0 0.0 0.00 0.00 0.00 96 1014.3
20260903044943 76 76 0.0 0.0 0.00 0.00 0.00 96 1014.3
20260903044439 76 76 0.0 0.0 0.00 0.00 0.00 96 1014.3
20260903043935 76 81 0.0 0.0 0.00 0.00 0.00 96 1014.2
20260903043431 76 81 0.0 0.0 0.00 0.00 0.00 96 1014.2
20260903042929 77 82 0.0 0.0 0.00 0.00 0.00 96 1014.2
20260903042424 77 77 0.0 0.0 0.00 0.00 0.00 95 1014.3
20260903041920 77 76 0.0 0.0 0.00 0.00 0.00 95 1014.2
20260903041416 77 76 0.0 0.0 0.00 0.00 0.00 95 1014.2
20260903040912 77 76 0.0 0.0 0.00 0.00 0.00 95 1014.0
20260903040411 77 76 0.0 0.0 0.00 0.00 0.00 95 1014.1
20260903035907 77 76 0.0 0.0 0.00 0.00 0.00 95 1014.3
20260903035403 77 76 0.0 0.0 0.00 0.00 0.00 94 1014.0
20260903034857 77 76 0.0 0.0 0.00 0.00 0.00 94 1014.1
20260903034352 77 76 0.0 0.0 0.00 0.00 0.00 94 1014.2
20260903033848 77 76 0.0 0.0 0.00 0.00 0.00 94 1014.2
20260903033343 77 76 0.0 0.0 0.00 0.00 0.00 94 1014.2
20260903032842 77 79 0.0 0.0 0.00 0.00 0.00 94 1014.1
20260903032338 78 79 0.0 0.0 0.00 0.00 0.00 94 1014.1
20260903031828 78 76 0.0 0.0 0.00 0.00 0.00 94 1014.3
20260903031327 77 76 0.0 0.0 0.00 0.00 0.00 94 1014.4
20260903030823 77 76 0.0 0.0 0.00 0.00 0.00 93 1014.2
20260903030319 77 76 0.0 0.0 0.00 0.00 0.00 93 1014.2
20260903025815 78 76 0.0 0.0 0.00 0.00 0.00 93 1013.9
20260903025310 77 76 0.0 0.0 0.00 0.00 0.00 92 1014.4
20260903024804 78 76 0.0 0.0 0.00 0.00 0.00 92 1014.4
20260903024304 78 76 0.0 0.0 0.00 0.00 0.00 92 1014.2
20260903023759 78 76 0.0 0.0 0.00 0.00 0.00 92 1014.2
20260903023254 78 76 0.0 0.0 0.00 0.00 0.00 92 1014.0
20260903022749 78 83 0.0 0.0 0.00 0.00 0.00 92 1014.2
20260903022247 78 84 0.0 0.0 0.00 0.00 0.00 91 1014.1
20260903021742 78 87 0.0 0.0 0.00 0.00 0.00 91 1014.1
20260903021237 79 83 0.0 0.0 0.00 0.00 0.00 91 1014.2
20260903020737 79 84 0.0 0.0 0.00 0.00 0.00 91 1014.2
20260903020231 79 88 0.0 0.0 0.00 0.00 0.00 90 1013.9
20260903015727 79 82 0.0 0.0 0.00 0.00 0.00 90 1013.8
20260903015222 79 81 0.0 0.0 0.00 0.00 0.00 90 1014.0
20260903014718 79 81 0.0 0.0 0.00 0.00 0.00 90 1013.8
20260903014217 79 79 0.0 0.0 0.00 0.00 0.00 90 1014.1
20260903013712 79 76 0.0 0.0 0.00 0.00 0.00 90 1013.9
20260903013211 80 81 0.0 0.0 0.00 0.00 0.00 89 1013.8
20260903012709 80 77 0.0 0.0 0.00 0.00 0.00 89 1013.8
20260903012204 80 75 0.0 0.0 0.00 0.00 0.00 89 1013.5
20260903011658 80 76 0.0 0.0 0.00 0.00 0.00 89 1013.3
20260903011152 80 78 0.0 0.0 0.00 0.00 0.00 89 1013.4
20260903010647 80 77 0.0 0.0 0.00 0.00 0.00 88 1013.4
20260903010146 81 72 0.0 0.0 0.00 0.00 0.00 88 1013.3
20260903005641 81 74 0.0 0.0 0.00 0.00 0.00 88 1013.3
20260903005137 81 80 0.0 0.0 0.00 0.00 0.00 87 1013.3
20260903004632 81 81 0.0 0.0 0.00 0.00 0.00 86 1013.4
20260903004126 82 80 0.0 0.0 0.00 0.00 0.00 86 1013.2
20260903003622 82 80 0.0 0.0 0.00 0.00 0.00 85 1013.4
20260903003117 83 76 0.0 0.0 0.00 0.00 0.00 84 1013.2
20260903002612 84 74 0.0 0.0 0.00 0.00 0.00 83 1013.2
20260903002106 84 80 0.0 0.0 0.00 0.00 0.00 82 1013.4
20260903001601 84 88 0.0 0.0 0.00 0.00 0.00 81 1013.3
20260903001101 85 86 0.0 0.0 0.00 0.00 0.00 80 1013.2
20260903000557 85 94 0.0 0.0 0.00 0.00 0.00 79 1013.3
20260903000056 85 85 0.0 0.0 0.00 0.00 0.00 79 1013.5
20260902235555 86 78 0.0 0.0 0.00 0.00 0.00 78 1013.7
20260902235050 87 120 0.0 1.0 0.00 0.00 0.00 76 1013.5
20260902234545 88 75 0.0 0.0 0.00 0.00 0.00 75 1013.6
20260902234043 88 70 1.0 1.0 0.00 0.00 0.00 74 1013.3
20260902233538 88 84 1.0 1.0 0.00 0.00 0.00 74 1013.4
20260902233033 87 66 0.0 0.0 0.00 0.00 0.00 75 1013.5
20260902232532 86 70 0.0 0.0 0.00 0.00 0.00 77 1013.4
20260902232026 86 64 0.0 0.0 0.00 0.00 0.00 78 1013.5
20260902231521 86 70 0.0 0.0 0.00 0.00 0.00 77 1013.4
20260902231020 86 80 0.0 0.0 0.00 0.00 0.00 77 1013.4
20260902230515 86 99 0.0 1.0 0.00 0.00 0.00 76 1013.5
20260902230014 86 63 0.0 0.0 0.00 0.00 0.00 77 1013.4
20260902225510 86 106 0.0 1.0 0.00 0.00 0.00 75 1013.1
20260902225004 86 72 0.0 0.0 0.00 0.00 0.00 75 1013.5
20260902224502 86 62 0.0 1.0 0.00 0.00 0.00 76 1013.6
20260902223954 86 75 0.0 1.0 0.00 0.00 0.00 76 1013.5
20260902223449 87 70 0.0 0.0 0.00 0.00 0.00 75 1013.4
20260902222948 87 94 0.0 0.0 0.00 0.00 0.00 75 1013.8
20260902222446 87 73 0.0 1.0 0.00 0.00 0.00 75 1013.5
20260902221941 87 295 1.0 2.0 0.00 0.00 0.00 74 1013.7
20260902221439 87 278 4.0 5.0 0.00 0.00 0.00 75 1013.5
20260902220935 88 252 2.0 2.0 0.00 0.00 0.00 72 1013.6
20260902220430 88 53 0.0 1.0 0.00 0.00 0.00 71 1013.4
20260902215925 87 63 0.0 1.0 0.00 0.00 0.00 73 1013.7
20260902215420 88 45 1.0 1.0 0.00 0.00 0.00 72 1013.6
20260902214916 88 67 1.0 1.0 0.00 0.00 0.00 71 1013.5
20260902214415 88 110 1.0 1.0 0.00 0.00 0.00 72 1013.8
20260902213909 88 81 0.0 0.0 0.00 0.00 0.00 73 1013.6
20260902213406 88 174 1.0 2.0 0.00 0.00 0.00 70 1013.6
20260902212904 89 82 1.0 1.0 0.00 0.00 0.00 68 1013.5
20260902212400 89 230 1.0 1.0 0.00 0.00 0.00 67 1013.7
20260902211857 89 233 3.0 3.0 0.00 0.00 0.00 67 1013.6
20260902211352 90 101 0.0 1.0 0.00 0.00 0.00 68 1013.6
20260902210847 89 62 1.0 2.0 0.00 0.00 0.00 68 1013.7
20260902210346 88 167 1.0 1.0 0.00 0.00 0.00 68 1013.7
20260902205845 89 207 2.0 3.0 0.00 0.00 0.00 70 1013.6
20260902205339 89 17 1.0 1.0 0.00 0.00 0.00 70 1013.8
20260902204835 89 127 1.0 1.0 0.00 0.00 0.00 69 1013.8
20260902204329 90 53 3.0 5.0 0.00 0.00 0.00 68 1013.9
20260902203825 91 314 2.0 2.0 0.00 0.00 0.00 67 1013.7
20260902203320 90 154 3.0 5.0 0.00 0.00 0.00 68 1013.5
20260902202819 89 322 3.0 6.0 0.00 0.00 0.00 68 1013.5
20260902202316 89 43 3.0 3.0 0.00 0.00 0.00 67 1013.8